Muskegon, MI

8:23 AM EDT on August 19, 2017 (GMT -0400)
Muskegon County

Weather History for KMKG - November, 2012

Change the Weather History Date:

Wednesday, November 7, 2012

  Actual Average Record
Temperature  
Mean Temperature 40 °F 43 °F  
Max Temperature 50 °F 50 °F 66 °F (1915)
Min Temperature 30 °F 37 °F 21 °F (1991)
Degree Days  
Heating Degree Days 25 22  
Month to date heating degree days 180 145  
Since 1 July heating degree days 762 768  
Cooling Degree Days 0 0  
Month to date cooling degree days 0 0  
Year to date cooling degree days 925 566  
Moisture  
Dew Point 29 °F    
Average Humidity 64    
Maximum Humidity 85    
Minimum Humidity 42    
Precipitation  
Precipitation T in 0.11 in 1.29 in (1943)
Month to date precipitation T 0.82  
Year to date precipitation 27.98 28.40  
Snow  
Snow T in 0.10 in 5.00 in (1951)
Month to date snowfall T 0.5  
Since 1 July snowfall T 0.7  
Since 1 September snowfall T 0.7  
Snow Depth 0.00 in    
Sea Level Pressure  
Sea Level Pressure 30.09 in    
Wind  
Wind Speed 6 mph (East)    
Max Wind Speed 14 mph    
Max Gust Speed 16 mph    
Visibility 10 miles    
Events Rain    
T = Trace of Precipitation, MM = Missing Value Source: NWS Daily Summary

Daily Weather History Graph

Daily Weather History Graph

Search for Another Location

Airport or City:

Trip Planner

Search our weather history database for the weather conditions in past years. The results will help you decide how hot, cold, wet, or windy it might be!

Date:

Astronomy

Nov. 07, 2012 Rise Set
Actual Time 7:28 AM EST 5:28 PM EST
Civil Twilight 6:58 AM EST 5:58 PM EST
Nautical Twilight 6:24 AM EST 6:32 PM EST
Astronomical Twilight 5:50 AM EST 7:05 PM EST
Moon 12:10 AM EST (11/7) 1:47 PM EST (11/7)
Length of Visible Light 11h 00m
Length of Day
10h 00m
Last Quarter, 43% of the Moon is Illuminated
Nov 7
Last Quarter
Nov 13
New
Nov 20
First Quarter
Nov 28
Full
Dec 6
Last Quarter

Hourly Weather History & Observations

Time (EST) Temp. Windchill Dew Point Humidity Pressure Visibility Wind Dir Wind Speed Gust Speed Precip Events Conditions
12:55 AM 39.0 °F 32.3 °F 30.0 °F 70% 29.97 in 10.0 mi ESE 10.4 mph - 0.00 in Rain Light Rain
1:55 AM 37.9 °F 32.1 °F 30.0 °F 73% 29.98 in 10.0 mi ESE 8.1 mph - 0.00 in   Overcast
2:55 AM 37.9 °F 30.9 °F 30.0 °F 73% 29.99 in 10.0 mi ESE 10.4 mph - N/A   Overcast
3:55 AM 37.9 °F 32.7 °F 28.9 °F 70% 30.00 in 10.0 mi East 6.9 mph - N/A   Overcast
4:55 AM 37.9 °F 32.1 °F 28.9 °F 70% 30.01 in 10.0 mi East 8.1 mph - N/A   Overcast
5:55 AM 37.9 °F 32.7 °F 28.9 °F 70% 30.03 in 10.0 mi East 6.9 mph - N/A   Overcast
6:55 AM 37.4 °F 29.8 °F 28.4 °F 70% 30.02 in 9.0 mi East 11.5 mph - N/A   Overcast
7:55 AM 37.0 °F 31.0 °F 28.0 °F 70% 30.07 in 9.0 mi East 8.1 mph - N/A   Overcast
8:55 AM 37.9 °F 32.1 °F 27.0 °F 65% 30.10 in 10.0 mi East 8.1 mph - N/A   Overcast
9:55 AM 39.0 °F 32.8 °F 26.1 °F 60% 30.10 in 10.0 mi East 9.2 mph - N/A   Mostly Cloudy
10:55 AM 42.1 °F 38.4 °F 27.0 °F 55% 30.12 in 10.0 mi East 5.8 mph - N/A   Clear
11:55 AM 45.0 °F 42.6 °F 27.0 °F 49% 30.12 in 10.0 mi Variable 4.6 mph - N/A   Clear
12:55 PM 46.9 °F - 27.0 °F 46% 30.10 in 10.0 mi NE 5.8 mph - N/A   Clear
1:55 PM 48.0 °F - 27.0 °F 44% 30.09 in 10.0 mi East 9.2 mph - N/A   Clear
2:55 PM 48.9 °F - 28.0 °F 44% 30.09 in 10.0 mi WSW 5.8 mph - N/A   Clear
3:55 PM 46.9 °F - 30.0 °F 52% 30.10 in 10.0 mi NW 4.6 mph - N/A   Clear
4:55 PM 44.1 °F 40.1 °F 30.9 °F 60% 30.12 in 10.0 mi WNW 6.9 mph - N/A   Clear
5:55 PM 41.0 °F 38.0 °F 30.9 °F 67% 30.13 in 10.0 mi NNW 4.6 mph - N/A   Clear
6:55 PM 37.9 °F - 30.9 °F 76% 30.15 in 10.0 mi Calm Calm - N/A   Clear
7:55 PM 36.0 °F - 28.9 °F 76% 30.16 in 10.0 mi Calm Calm - N/A   Clear
8:55 PM 33.1 °F - 28.0 °F 82% 30.17 in 9.0 mi Calm Calm - N/A   Clear
9:55 PM 32.0 °F - 28.0 °F 85% 30.18 in 8.0 mi Calm Calm - N/A   Clear
10:55 PM 30.9 °F 27.5 °F 27.0 °F 85% 30.18 in 6.0 mi ESE 3.5 mph - N/A   Clear
11:55 PM 30.9 °F - 27.0 °F 85% 30.17 in 5.0 mi Calm Calm - N/A   Clear